Portland, OR

1:11 PM PST on November 16, 2019 (GMT -0800)
Portland International

Weather History for KPDX - October, 2019

Change the Weather History Date:

Sunday, October 13, 2019

  Actual Average Record
Temperature  
Mean Temperature 57 °F 56 °F  
Max Temperature 63 °F 65 °F 81 °F (2004)
Min Temperature 50 °F 46 °F 35 °F (1966)
Degree Days  
Heating Degree Days 8 9  
Month to date heating degree days 157 96  
Since 1 July heating degree days 240 199  
Cooling Degree Days 0 0  
Month to date cooling degree days 0 0  
Year to date cooling degree days 564 422  
Growing Degree Days 6 (Base 50)    
Moisture  
Dew Point 44 °F    
Average Humidity 65    
Maximum Humidity 83    
Minimum Humidity 46    
Precipitation  
Precipitation 0.00 in 0.08 in 1.99 in (2016)
Month to date precipitation 0.18 0.91  
Year to date precipitation 19.43 22.82  
Sea Level Pressure  
Sea Level Pressure 29.98 in    
Wind  
Wind Speed 3 mph (NW)    
Max Wind Speed 10 mph    
Max Gust Speed 13 mph    
Visibility 10 miles    
Events      
T = Trace of Precipitation, MM = Missing Value Source: NWS Daily Summary

Daily Weather History Graph

Daily Weather History Graph

Search for Another Location

Airport or City:

Astronomy

Oct. 13, 2019 Rise Set
Actual Time 7:23 AM PDT 6:28 PM PDT
Civil Twilight 6:54 AM PDT 6:58 PM PDT
Nautical Twilight 6:19 AM PDT 7:32 PM PDT
Astronomical Twilight 5:45 AM PDT 8:06 PM PDT
Moon 6:55 PM PDT (10/13) 6:59 AM PDT (10/13)
Length of Visible Light 12h 04m
Length of Day
11h 04m
Full, 100% of the Moon is Illuminated
Oct 13
Full
Oct 13
Full
Oct 21
Last Quarter
Oct 27
New
Nov 4
First Quarter

Hourly Weather History & Observations

Time (PDT) Temp. Dew Point Humidity Pressure Visibility Wind Dir Wind Speed Gust Speed Precip Events Conditions
12:53 AM 53.1 °F 44.1 °F 71% 29.92 in 10.0 mi East 6.9 mph - N/A   Overcast
1:53 AM 53.1 °F 45.0 °F 74% 29.94 in 10.0 mi NW 3.5 mph - N/A   Mostly Cloudy
2:53 AM 52.0 °F 46.0 °F 80% 29.94 in 10.0 mi Calm Calm - N/A   Overcast
3:53 AM 52.0 °F 44.1 °F 74% 29.93 in 10.0 mi Calm Calm - N/A   Overcast
4:53 AM 53.1 °F 41.0 °F 64% 29.93 in 10.0 mi ENE 4.6 mph - N/A   Overcast
5:53 AM 53.1 °F 43.0 °F 69% 29.94 in 10.0 mi Calm Calm - N/A   Overcast
6:53 AM 51.1 °F 44.1 °F 77% 29.96 in 10.0 mi WSW 3.5 mph - N/A   Overcast
7:53 AM 52.0 °F 46.0 °F 80% 29.96 in 10.0 mi Calm Calm - N/A   Overcast
8:53 AM 53.1 °F 46.0 °F 77% 29.97 in 10.0 mi Calm Calm - N/A   Overcast
9:53 AM 54.0 °F 45.0 °F 72% 29.98 in 10.0 mi Calm Calm - N/A   Overcast
10:53 AM 55.0 °F 45.0 °F 69% 29.98 in 10.0 mi Calm Calm - N/A   Overcast
11:53 AM 57.0 °F 46.0 °F 67% 29.98 in 10.0 mi Calm Calm - N/A   Mostly Cloudy
12:53 PM 60.1 °F 44.1 °F 55% 29.97 in 10.0 mi NW 4.6 mph - N/A   Mostly Cloudy
1:53 PM 62.1 °F 41.0 °F 46% 29.96 in 10.0 mi WNW 4.6 mph - N/A   Mostly Cloudy
2:53 PM 63.0 °F 43.0 °F 48% 29.96 in 10.0 mi WNW 6.9 mph - N/A   Mostly Cloudy
3:53 PM 62.1 °F 46.0 °F 56% 29.97 in 10.0 mi WNW 5.8 mph - N/A   Overcast
4:53 PM 61.0 °F 46.0 °F 58% 29.97 in 10.0 mi North 8.1 mph - N/A   Mostly Cloudy
5:53 PM 60.1 °F 45.0 °F 57% 29.98 in 10.0 mi North 4.6 mph - N/A   Mostly Cloudy
6:53 PM 59.0 °F 46.0 °F 62% 29.99 in 10.0 mi Calm Calm - N/A   Mostly Cloudy
7:53 PM 55.9 °F 46.0 °F 69% 30.00 in 10.0 mi WNW 4.6 mph - N/A   Mostly Cloudy
8:53 PM 55.0 °F 45.0 °F 69% 30.02 in 10.0 mi NW 6.9 mph - N/A   Mostly Cloudy
9:53 PM 53.1 °F 44.1 °F 71% 30.04 in 10.0 mi WNW 4.6 mph - N/A   Partly Cloudy
10:53 PM 52.0 °F 44.1 °F 74% 30.05 in 10.0 mi Variable 5.8 mph - N/A   Mostly Cloudy
11:53 PM 51.1 °F 44.1 °F 77% 30.06 in 10.0 mi NW 6.9 mph - N/A   Mostly Cloudy